Regional Weather Roundup
Issued by NWS

Home | Current Version | Previous Version | Graphics & Text | Print | Product List | Glossary On
Versions: 1 2 3 4 5 6 7 8 9 10 11 12 13 14 15 16 17 18 19 20 21 22 23 24 25 26 27 28 29 30 31 32 33 34 35 36 37 38 39 40 41 42 43 44 45 46 47 48 49 50
528
ASUS43 KBIS 260710
RWRND

NORTH DAKOTA REGIONAL WEATHER ROUNDUP
NATIONAL WEATHER SERVICE BISMARCK ND
200 AM CDT TUE SEP 26 2017

NOTE: "FAIR" INDICATES FEW OR NO CLOUDS BELOW 12,000 FEET WITH NO
SIGNIFICANT WEATHER AND/OR OBSTRUCTIONS TO VISIBILITY.


NDZ001>003-009>011-017-260800-
NORTHWEST NORTH DAKOTA

CITY           SKY/WX    TMP DP  RH WIND       PRES   REMARKS
WILLISTON      CLOUDY    47  46  97 E3        30.11S
MINOT          CLOUDY    49  45  86 CALM      30.11F
MINOT AFB      CLOUDY    47  44  88 CALM      30.10F
$$

NDZ018>021-031>035-040>046-260800-
SOUTHWEST NORTH DAKOTA

CITY           SKY/WX    TMP DP  RH WIND       PRES   REMARKS
BISMARCK       CLOUDY    47  45  93 NE3       30.13S
DICKINSON      CLOUDY    45  44  97 E3        30.08F
GARRISON         N/A     45  44  97 SE6       30.11F
HETTINGER ARPT CLOUDY    44  42  93 SE6       30.11S
$$

NDZ004>008-012>016-024-026-027-054-260800-
NORTHEAST NORTH DAKOTA

CITY           SKY/WX    TMP DP  RH WIND       PRES   REMARKS
GRAND FORKS    CLOUDY    51  49  92 N7        30.09R
GRND FRKS AFB  CLOUDY    50  48  93 N6        30.10R
DEVILS LAKE    CLOUDY    46  43  89 N6        30.12S
$$

NDZ022-023-025-028>030-036>039-047>053-260800-
SOUTHEAST NORTH DAKOTA

CITY           SKY/WX    TMP DP  RH WIND       PRES   REMARKS
FARGO          LGT RAIN  50  50 100 NW9       30.07R
JAMESTOWN      RAIN      47  45  93 NW5       30.11R
$$





USA.gov is the U.S. government's official web portal to all federal, state and local government web resources and services.